[[{"header":{"parameterUnit":"m.s-1","parameterCategory":2,"la1":30.2991,"la2":30.254,"lo1":-89.0895,"lo2":-89.0444,"dy":0.0017,"dx":0.0017,"nx":28,"ny":28,"refTime":"2023-10-19T21:00:00:Z","depth":"0","parameterNumber":2,"parameterNumberName":"U-component_of_CURRENTS"},"data":[0,0,0,0,0,0,0,0,0,0,0,0,0,0,0,0,0,0,0,0,0,0,0,0,0,0,0,0,0,0,0,0,0,0,0,0,0,0,0,0,0,0,0,0,0,0,0,0,0,0,0,0,0,0,0,0,0,0,0.05,0.0499,0,0.0432,0.0431,0.043,0.0378,0.0377,0.0377,0.0376,0.0308,0.0307,0.0306,0,0,0,0,0,0,0,0,0,0,0,0,0,0.0585,0.0584,0.05,0.0499,0.0498,0.0432,0.0431,0.043,0.0378,0.0377,0.0377,0.0376,0.0309,0.0307,0.0305,0,0,0,0,0,0,0,0,0,0,0,0,0,0.0535,0.0584,0.05,0.0465,0.0461,0.0432,0.0431,0.043,0.0378,0.0377,0.0377,0.0376,0.0309,0.0307,0.0305,0.0306,0,0,0.0299,0.0298,0,0,0,0,0,0,0,0,0.0538,0.0532,0.0471,0.0467,0.0463,0.0413,0.0436,0.0389,0.0378,0.0409,0.0376,0.0376,0.0344,0.0339,0.0327,0.0302,0.0299,0.0299,0.0297,0.0296,0.0296,0,0,0,0,0,0,0,0.0542,0.0535,0.0472,0.047,0.0465,0.0453,0.0445,0.0427,0.0381,0.0406,0.0402,0.0396,0.0342,0.0329,0.0325,0.0298,0.0299,0.0297,0.0296,0.0295,0.0359,0.0362,0,0,0,0,0,0,0.0552,0.0538,0.0475,0.047,0.05,0.0452,0.0443,0.0429,0.0381,0.0373,0.0397,0.0394,0.0333,0.0328,0.0323,0.0368,0.0296,0.0294,0.0293,0.0356,0.036,0.0363,0,0,0,0,0,0,0.0554,0.0547,0.0477,0.0504,0.0494,0.0451,0.0436,0.0428,0.0418,0.0374,0.0365,0.0394,0.0332,0.0325,0.033,0.0363,0.0294,0.0292,0.0353,0.0357,0.0361,0.0429,0,0,0,0,0,0,0.0557,0.0548,0.0552,0.0504,0.0493,0.0473,0.0437,0.0428,0.0415,0.0411,0.0369,0.0362,0.0331,0.0333,0.0328,0.0359,0.029,0.0349,0.0355,0.036,0.0423,0.0435,0.0446,0,0,0,0,0,0.056,0.0576,0.0553,0.0546,0.0497,0.0474,0.0468,0.0434,0.0416,0.042,0.0402,0.0363,0.0365,0.0333,0.0326,0.0358,0.0346,0.0353,0.0359,0.0418,0.0433,0.0445,0,0,0,0,0,0,0.0627,0.0571,0.0544,0.0545,0.0514,0.0465,0.0475,0.0442,0.0429,0.043,0.0384,0.0377,0.0395,0.0379,0.0344,0.0401,0.0356,0.0362,0.0404,0.0417,0.0428,0.0426,0.0288,0,0,0,0,0,0.0641,0.0638,0.0577,0.0586,0.057,0.0521,0.0511,0.0483,0.0459,0.0451,0.0423,0.0414,0.0418,0.0417,0.0411,0.0432,0.0445,0.0459,0.047,0.0479,0.0479,0.0501,0.0513,0.0385,0.0385,0.0385,0,0,0.0674,0.0644,0.0644,0.0601,0.0576,0.0564,0.0514,0.0505,0.0504,0.0449,0.0455,0.0442,0.0433,0.0459,0.0468,0.0448,0.0543,0.0488,0.0495,0.0489,0.0509,0.0521,0.0532,0.0389,0.0389,0.0388,0,0,0.0745,0.0706,0.0723,0.0692,0.0654,0.0616,0.0615,0.0565,0.0552,0.055,0.0525,0.0538,0.0527,0.0534,0.0535,0.0611,0.0596,0.0618,0.0671,0.0694,0.0704,0.0712,0.0822,0.0839,0.0629,0.0629,0.063,0,0.0781,0.0781,0.073,0.0731,0.0709,0.0642,0.0645,0.0627,0.059,0.0584,0.0567,0.0574,0.0565,0.0602,0.0638,0.0632,0.0667,0.0611,0.0705,0.0713,0.072,0.083,0.0848,0.0633,0.0633,0.0633,0.0632,0,0.085,0.0844,0.0854,0.082,0.0799,0.0791,0.0739,0.0728,0.0698,0.0671,0.0687,0.068,0.0681,0.0699,0.0688,0.0748,0.077,0.0708,0.066,0.0737,0.085,0.0867,0.0639,0.0638,0.0637,0.0636,0,0,0.0921,0.0902,0.09,0.0882,0.0832,0.0809,0.082,0.0789,0.078,0.077,0.0775,0.0805,0.0784,0.0789,0.0783,0.0814,0.0929,0.0792,0.0791,0.0886,0.1048,0.1243,0.1282,0.0868,0.0869,0.0871,0.1134,0,0.0975,0.0989,0.0968,0.0966,0.0949,0.0891,0.0892,0.0862,0.0835,0.0826,0.083,0.0832,0.0824,0.0827,0.0861,0.0887,0.0965,0.0868,0.0973,0.0979,0.1126,0.1304,0.1387,0.1642,0.1151,0.1154,0.1156,0,0.1028,0.102,0.103,0.0991,0.0979,0.097,0.0921,0.0915,0.0896,0.0882,0.089,0.0876,0.0942,0.0901,0.1026,0.096,0.1027,0.1058,0.1067,0.1226,0.1205,0.1473,0.1692,0.1618,0.1183,0.118,0.1178,0,0.1056,0.1052,0.1053,0.1036,0.0994,0.0986,0.096,0.0928,0.0909,0.0913,0.0918,0.0958,0.1004,0.1051,0.1168,0.1082,0.1324,0.1201,0.1462,0.1479,0.1563,0.1585,0.1701,0.1309,0.1309,0.1308,0.1307,0,0.1086,0.1085,0.1058,0.1043,0.1015,0.0994,0.0955,0.0944,0.093,0.0939,0.0946,0.1005,0.1036,0.1172,0.1225,0.1473,0.1391,0.1538,0.1568,0.1604,0.1625,0.1569,0.1483,0.1318,0.1316,0.1314,0.1312,0,0.1107,0.1099,0.108,0.1042,0.1019,0.0991,0.0925,0.0903,0.0921,0.0943,0.0957,0.1066,0.1286,0.1395,0.1542,0.1609,0.178,0.187,0.1978,0.2018,0.2145,0.2061,0.2188,0.2169,0.2174,0.218,0.2186,0,0.1119,0.1113,0.1059,0.1016,0.0991,0.0936,0.0891,0.0879,0.0876,0.1006,0.1044,0.1277,0.1475,0.1841,0.2025,0.2263,0.2093,0.2442,0.228,0.2246,0.2169,0.2009,0.1965,0.2445,0.2452,0.2458,0.2463,0,0.1125,0.1107,0.1084,0.1014,0.0956,0.0877,0.0844,0.085,0.0893,0.0988,0.1212,0.14,0.183,0.2145,0.2492,0.2622,0.2384,0.2573,0.2465,0.238,0.2278,0.2244,0.222,0.2515,0.251,0.2506,0.2503,0.2501,0.113,0.1114,0.1089,0.1027,0.0945,0.0884,0.0876,0.0897,0.0977,0.1187,0.1342,0.1675,0.2107,0.2634,0.2775,0.3029,0.2823,0.2943,0.2853,0.2699,0.2654,0.2827,0.3183,0.3182,0.318,0.3179,0.3179,0,0.1169,0.1158,0.1098,0.1047,0.0994,0.0929,0.0899,0.0943,0.1114,0.131,0.156,0.2057,0.2483,0.2815,0.3226,0.3243,0.3099,0.3172,0.288,0.2825,0.2948,0.293,0.3333,0.3333,0.3334,0.3334,0.3334,0.3334,0.1199,0.12,0.1188,0.1145,0.1089,0.1073,0.1084,0.1151,0.1279,0.1601,0.1877,0.2102,0.2508,0.3017,0.3275,0.3284,0.3026,0.3031,0.2882,0.2873,0.2838,0.2805,0.2766,0.3129,0.3128,0.2724,0.2721,0.2719]},{"header":{"parameterUnit":"m.s-1","parameterCategory":2,"la1":30.2991,"la2":30.254,"lo1":-89.0895,"lo2":-89.0444,"dy":0.0017,"dx":0.0017,"nx":28,"ny":28,"refTime":"2023-10-19T21:00:00:Z","depth":"0","parameterNumber":3,"parameterNumberName":"V-component_of_CURRENTS"},"data":[0,0,0,0,0,0,0,0,0,0,0,0,0,0,0,0,0,0,0,0,0,0,0,0,0,0,0,0,0,0,0,0,0,0,0,0,0,0,0,0,0,0,0,0,0,0,0,0,0,0,0,0,0,0,0,0,0,0,-0.2191,-0.2191,0,-0.2294,-0.2296,-0.2298,-0.2357,-0.2356,-0.2355,-0.2355,-0.2413,-0.2415,-0.2417,0,0,0,0,0,0,0,0,0,0,0,0,0,-0.1981,-0.1986,-0.2191,-0.2191,-0.2192,-0.2294,-0.2296,-0.2299,-0.2357,-0.2356,-0.2355,-0.2355,-0.2413,-0.2415,-0.2418,0,0,0,0,0,0,0,0,0,0,0,0,0,-0.2085,-0.1987,-0.219,-0.2227,-0.2231,-0.2294,-0.2296,-0.2299,-0.2357,-0.2356,-0.2355,-0.2354,-0.2412,-0.2415,-0.2418,-0.2454,0,0,-0.2427,-0.2429,0,0,0,0,0,0,0,0,-0.2079,-0.2094,-0.2221,-0.2225,-0.2229,-0.2305,-0.2243,-0.2346,-0.2357,-0.2318,-0.2355,-0.2354,-0.2368,-0.2375,-0.2408,-0.2456,-0.2459,-0.2428,-0.243,-0.2431,-0.2432,0,0,0,0,0,0,0,-0.2072,-0.2089,-0.224,-0.2222,-0.2226,-0.2216,-0.2232,-0.2264,-0.2352,-0.2321,-0.2323,-0.2322,-0.2371,-0.2405,-0.241,-0.246,-0.2428,-0.243,-0.2432,-0.2434,-0.2487,-0.2487,0,0,0,0,0,0,-0.2048,-0.2083,-0.2236,-0.2242,-0.2141,-0.2221,-0.2238,-0.2288,-0.2352,-0.2359,-0.2323,-0.2324,-0.24,-0.2406,-0.2412,-0.2429,-0.2431,-0.2434,-0.2436,-0.2487,-0.2487,-0.2486,0,0,0,0,0,0,-0.2044,-0.2063,-0.2232,-0.2155,-0.2174,-0.2225,-0.228,-0.229,-0.2322,-0.2353,-0.2361,-0.2343,-0.24,-0.2408,-0.2442,-0.2432,-0.2435,-0.2438,-0.2488,-0.2487,-0.2487,-0.2481,0,0,0,0,0,0,-0.2039,-0.2062,-0.2086,-0.2155,-0.2178,-0.2277,-0.228,-0.2292,-0.2319,-0.2322,-0.2373,-0.2378,-0.24,-0.2437,-0.2445,-0.2437,-0.2441,-0.2489,-0.2488,-0.2487,-0.2482,-0.2481,-0.2479,0,0,0,0,0,-0.2032,-0.2072,-0.2089,-0.2105,-0.2213,-0.2278,-0.2291,-0.2325,-0.232,-0.2349,-0.2372,-0.2376,-0.2436,-0.2441,-0.245,-0.2442,-0.2489,-0.2488,-0.2487,-0.2483,-0.2481,-0.2479,0,0,0,0,0,0,-0.1943,-0.2083,-0.2102,-0.2169,-0.2218,-0.2284,-0.2309,-0.2324,-0.237,-0.2369,-0.2391,-0.24,-0.2416,-0.2433,-0.2437,-0.2451,-0.2455,-0.2456,-0.2448,-0.2447,-0.2446,-0.2425,-0.2443,0,0,0,0,0,-0.1945,-0.2046,-0.2123,-0.2166,-0.2201,-0.2253,-0.2278,-0.2306,-0.2349,-0.2369,-0.2395,-0.2412,-0.2422,-0.2438,-0.2456,-0.2483,-0.2423,-0.2475,-0.2474,-0.2473,-0.246,-0.2373,-0.2362,-0.2483,-0.2483,-0.2483,0,0,-0.1908,-0.2,-0.2045,-0.2158,-0.2205,-0.2258,-0.2271,-0.232,-0.2341,-0.2366,-0.2403,-0.2412,-0.2425,-0.2447,-0.2455,-0.2462,-0.2399,-0.2471,-0.2471,-0.2458,-0.2371,-0.2359,-0.2348,-0.2483,-0.2483,-0.2483,0,0,-0.1907,-0.1983,-0.2075,-0.2135,-0.2219,-0.2253,-0.2264,-0.2337,-0.2355,-0.2395,-0.2395,-0.24,-0.2443,-0.2443,-0.2447,-0.2448,-0.2389,-0.2447,-0.2436,-0.2352,-0.2341,-0.233,-0.2202,-0.218,-0.2453,-0.2453,-0.2453,0,-0.1837,-0.1984,-0.2089,-0.2179,-0.2203,-0.2249,-0.2292,-0.2329,-0.2389,-0.2379,-0.2402,-0.2404,-0.2435,-0.2414,-0.2427,-0.2444,-0.2367,-0.2445,-0.2348,-0.2337,-0.2326,-0.2197,-0.2173,-0.2453,-0.2453,-0.2453,-0.2453,0,-0.1928,-0.2017,-0.2063,-0.2207,-0.224,-0.2289,-0.2339,-0.2358,-0.2367,-0.2381,-0.2365,-0.2398,-0.2383,-0.2399,-0.243,-0.2366,-0.2323,-0.2349,-0.2349,-0.2313,-0.218,-0.2155,-0.2452,-0.2453,-0.2453,-0.2453,0,0,-0.1834,-0.2081,-0.2096,-0.2141,-0.2259,-0.228,-0.2312,-0.2333,-0.2291,-0.2352,-0.2282,-0.2348,-0.2332,-0.2334,-0.2346,-0.2309,-0.2185,-0.2307,-0.2303,-0.2173,-0.1946,-0.1849,-0.1811,-0.2188,-0.2185,-0.2182,-0.1869,0,-0.1854,-0.2022,-0.2133,-0.2193,-0.2255,-0.2293,-0.2293,-0.2302,-0.2294,-0.2239,-0.2254,-0.2199,-0.2313,-0.2266,-0.2262,-0.2179,-0.2124,-0.2264,-0.2006,-0.1997,-0.1911,-0.1782,-0.1697,-0.1406,-0.1844,-0.184,-0.1837,0,-0.1916,-0.2015,-0.2109,-0.218,-0.2198,-0.221,-0.2164,-0.2175,-0.2127,-0.2104,-0.2078,-0.2059,-0.2007,-0.2095,-0.197,-0.2045,-0.2003,-0.1963,-0.195,-0.1844,-0.1854,-0.1521,-0.1344,-0.151,-0.1798,-0.1801,-0.1804,0,-0.1825,-0.1982,-0.2042,-0.2079,-0.2163,-0.2145,-0.2151,-0.2119,-0.2041,-0.1978,-0.1854,-0.1861,-0.173,-0.1747,-0.1702,-0.1809,-0.1512,-0.164,-0.151,-0.1501,-0.1369,-0.1354,-0.1317,-0.154,-0.154,-0.1541,-0.1542,0,-0.1821,-0.1856,-0.1995,-0.2021,-0.1978,-0.2062,-0.1962,-0.1961,-0.1856,-0.1664,-0.1751,-0.154,-0.1629,-0.1486,-0.1564,-0.1401,-0.139,-0.1448,-0.1401,-0.1362,-0.1351,-0.1446,-0.1576,-0.1529,-0.1532,-0.1534,-0.1536,0,-0.1708,-0.1842,-0.1871,-0.1945,-0.1947,-0.1895,-0.1824,-0.1719,-0.1655,-0.1381,-0.1318,-0.1199,-0.1013,-0.1078,-0.0992,-0.1105,-0.1086,-0.1005,-0.093,-0.0883,-0.1002,-0.1134,-0.0982,-0.1074,-0.0822,-0.0817,-0.0813,0,-0.1662,-0.1687,-0.1759,-0.1729,-0.1751,-0.17,-0.1625,-0.1604,-0.1435,-0.1118,-0.0913,-0.0687,-0.0456,-0.0325,-0.0486,-0.0531,-0.0786,-0.0521,-0.0762,-0.0935,-0.1048,-0.1177,-0.1283,-0.0561,-0.0555,-0.0551,-0.0547,0,-0.1485,-0.1525,-0.1545,-0.152,-0.1461,-0.1371,-0.1248,-0.1078,-0.0927,-0.0651,-0.0222,-0.0022,0.0091,0.0127,-0.0002,-0.0116,-0.0639,-0.043,-0.0622,-0.083,-0.0948,-0.1038,-0.0832,-0.0507,-0.0511,-0.0514,-0.0516,-0.0518,-0.1282,-0.1246,-0.1284,-0.1236,-0.119,-0.1003,-0.0814,-0.0604,-0.0259,0.0241,0.0326,0.0712,0.0591,0.0434,0.0228,-0.0157,-0.0296,-0.0337,-0.0464,-0.0567,-0.0722,-0.0407,-0.005,-0.0051,-0.0052,-0.0053,-0.0054,0,-0.0974,-0.0997,-0.0977,-0.0916,-0.0805,-0.0829,-0.0514,-0.0242,0.0255,0.0642,0.1031,0.1239,0.1045,0.0679,0.0168,-0.0156,-0.0404,-0.0363,-0.0581,-0.0685,-0.0369,-0.0434,-0.0127,-0.0127,-0.0127,-0.0127,-0.0127,-0.0127,-0.0798,-0.0714,-0.0757,-0.0554,-0.0499,-0.0214,0.0021,0.042,0.0752,0.1344,0.1631,0.1794,0.1528,0.0591,-0.0135,-0.0351,-0.0736,-0.0686,-0.0934,-0.0798,-0.0811,-0.0823,-0.0917,-0.0717,-0.0717,-0.1226,-0.123,-0.1234]}],[{"header":{"parameterUnit":"m.s-1","parameterCategory":2,"la1":30.2991,"la2":30.254,"lo1":-89.0895,"lo2":-89.0444,"dy":0.0017,"dx":0.0017,"nx":28,"ny":28,"refTime":"2023-10-19T21:00:00:Z","depth":"2","parameterNumber":2,"parameterNumberName":"U-component_of_CURRENTS"},"data":[0,0,0,0,0,0,0,0,0,0,0,0,0,0,0,0,0,0,0,0,0,0,0,0,0,0,0,0,0,0,0,0,0,0,0,0,0,0,0,0,0,0,0,0,0,0,0,0,0,0,0,0,0,0,0,0,0,0,0.048,0.048,0,0.0508,0.0509,0.0509,0.0527,0.0527,0.0528,0.0528,0.0518,0.0518,0.0517,0,0,0,0,0,0,0,0,0,0,0,0,0,0.0419,0.042,0.048,0.048,0.0481,0.0508,0.0509,0.0509,0.0527,0.0527,0.0528,0.0528,0.0518,0.0518,0.0517,0,0,0,0,0,0,0,0,0,0,0,0,0,0.0445,0.0421,0.048,0.0495,0.0496,0.0508,0.0509,0.0509,0.0527,0.0527,0.0528,0.0528,0.0519,0.0518,0.0517,0.0504,0,0,0.0515,0.0514,0,0,0,0,0,0,0,0,0.0443,0.0447,0.0492,0.0494,0.0496,0.0516,0.0484,0.0506,0.0527,0.0513,0.0528,0.0528,0.0515,0.0515,0.0517,0.0503,0.0503,0.0515,0.0514,0.0514,0.0514,0,0,0,0,0,0,0,0.0442,0.0446,0.0489,0.0492,0.0495,0.0493,0.0497,0.0488,0.0509,0.0514,0.0516,0.0522,0.0516,0.0518,0.0517,0.0503,0.0515,0.0514,0.0514,0.0513,0.0481,0.048,0,0,0,0,0,0,0.0443,0.0444,0.0488,0.049,0.0472,0.0494,0.0498,0.0508,0.051,0.0512,0.0522,0.0523,0.0519,0.0518,0.0516,0.0502,0.0514,0.0513,0.0513,0.0481,0.0481,0.048,0,0,0,0,0,0,0.0441,0.0447,0.0487,0.0469,0.0474,0.0495,0.0505,0.0508,0.0516,0.0517,0.0517,0.0528,0.0519,0.0517,0.0511,0.0502,0.0513,0.0512,0.0481,0.0481,0.048,0.0472,0,0,0,0,0,0,0.044,0.0446,0.0452,0.0469,0.0476,0.0491,0.0505,0.0508,0.052,0.0522,0.0522,0.0521,0.0519,0.0512,0.051,0.0501,0.0511,0.0482,0.0481,0.048,0.0473,0.0471,0.047,0,0,0,0,0,0.0437,0.0446,0.0452,0.0458,0.0484,0.0491,0.0494,0.0508,0.052,0.0518,0.0522,0.0522,0.0506,0.0511,0.0509,0.0499,0.0482,0.0481,0.0481,0.0473,0.0471,0.047,0,0,0,0,0,0,0.0435,0.0449,0.0457,0.0473,0.048,0.0495,0.0499,0.051,0.0512,0.0515,0.0518,0.0517,0.051,0.0504,0.051,0.0487,0.0493,0.0492,0.0489,0.0487,0.0485,0.0496,0.0511,0,0,0,0,0,0.0434,0.044,0.0453,0.0468,0.0469,0.0484,0.049,0.0499,0.0505,0.0508,0.0509,0.0507,0.0503,0.0496,0.0492,0.0476,0.0535,0.0468,0.0466,0.0465,0.0472,0.0531,0.0537,0.0477,0.0477,0.0477,0,0,0.0443,0.0449,0.0456,0.0466,0.0474,0.0478,0.0488,0.0496,0.0501,0.0505,0.0507,0.0505,0.05,0.0487,0.0482,0.0481,0.0525,0.0464,0.0463,0.047,0.0531,0.0537,0.0543,0.0477,0.0477,0.0477,0,0,0.0455,0.0461,0.0465,0.0466,0.0472,0.0476,0.0479,0.0489,0.0491,0.0494,0.0497,0.0487,0.0485,0.0471,0.0467,0.0452,0.0521,0.0454,0.0447,0.0504,0.051,0.0516,0.0658,0.0677,0.0445,0.0445,0.0445,0,0.0461,0.0471,0.0468,0.0468,0.047,0.0476,0.0479,0.0481,0.0489,0.0487,0.0494,0.0493,0.0476,0.0464,0.0455,0.0448,0.0532,0.0454,0.0505,0.0511,0.0518,0.0661,0.0682,0.0445,0.0445,0.0445,0.0445,0,0.0474,0.0478,0.0479,0.0478,0.0477,0.0479,0.0479,0.0475,0.0481,0.0487,0.0484,0.0472,0.0474,0.0457,0.0451,0.0471,0.054,0.0505,0.0515,0.0524,0.0675,0.0697,0.0444,0.0444,0.0444,0.0444,0,0,0.0491,0.0487,0.0489,0.0474,0.048,0.047,0.0476,0.0472,0.0477,0.0477,0.05,0.0462,0.047,0.0465,0.0454,0.0482,0.0599,0.0514,0.0517,0.0667,0.0817,0.0874,0.0904,0.0587,0.0589,0.059,0.0929,0,0.0498,0.049,0.0496,0.0483,0.0469,0.047,0.047,0.0466,0.0479,0.0501,0.049,0.0513,0.0471,0.0487,0.0503,0.0587,0.0647,0.0517,0.0776,0.0785,0.0841,0.0925,0.067,0.0949,0.095,0.0954,0.0956,0,0.0503,0.0489,0.0478,0.0456,0.0453,0.0448,0.044,0.0448,0.0477,0.05,0.0521,0.055,0.0601,0.056,0.0718,0.0652,0.0734,0.079,0.0804,0.0869,0.0878,0.0926,0.0988,0.0993,0.099,0.0987,0.0985,0,0.0478,0.0472,0.0453,0.0446,0.0431,0.042,0.0422,0.0437,0.0468,0.0523,0.0597,0.0631,0.0729,0.0788,0.0922,0.0841,0.1141,0.104,0.1175,0.1184,0.1022,0.1012,0.1148,0.1147,0.1147,0.1146,0.1145,0,0.0464,0.0448,0.0431,0.0409,0.0396,0.0388,0.0399,0.0415,0.0482,0.0573,0.0604,0.0735,0.0795,0.097,0.1012,0.1223,0.1232,0.1221,0.1269,0.102,0.1006,0.1056,0.104,0.1158,0.1156,0.1153,0.1151,0,0.044,0.0432,0.0404,0.038,0.0379,0.0365,0.0413,0.044,0.0511,0.0655,0.0704,0.0887,0.1141,0.1237,0.1422,0.1404,0.1539,0.1599,0.1358,0.1368,0.1524,0.1504,0.1776,0.178,0.1784,0.1788,0.179,0,0.0434,0.0412,0.0388,0.04,0.0393,0.0389,0.0412,0.0449,0.053,0.0776,0.0886,0.1165,0.1394,0.1716,0.17,0.1836,0.1797,0.1677,0.1416,0.1567,0.1586,0.156,0.1535,0.1235,0.1233,0.1231,0.123,0,0.0444,0.0432,0.0433,0.044,0.045,0.0456,0.0514,0.059,0.0707,0.0879,0.1198,0.14,0.1672,0.172,0.1856,0.1846,0.1613,0.1653,0.1891,0.1106,0.108,0.1092,0.108,0.1216,0.1217,0.1218,0.1219,0.1219,0.0499,0.0513,0.0529,0.0544,0.0533,0.0569,0.0649,0.076,0.0935,0.1196,0.1372,0.1587,0.1558,0.1673,0.1687,0.1623,0.1701,0.1513,0.1507,0.1506,0.1373,0.1353,0.1522,0.1525,0.1528,0.1531,0.1533,0,0.0627,0.0656,0.0654,0.0679,0.0695,0.066,0.0766,0.0882,0.115,0.1249,0.1502,0.1367,0.1428,0.1435,0.1309,0.1313,0.117,0.125,0.0999,0.1014,0.1027,0.0858,0.0879,0.0878,0.0877,0.0876,0,0,0.0721,0.0793,0.0777,0.0853,0.0866,0.0945,0.1037,0.1174,0.1252,0.1313,0.1305,0.1402,0.1386,0.112,0.1058,0.0985,0.0995,0.0929,0.1435,0.1154,0.1167,0.1147,0.0903,0,0,0,0,0]},{"header":{"parameterUnit":"m.s-1","parameterCategory":2,"la1":30.2991,"la2":30.254,"lo1":-89.0895,"lo2":-89.0444,"dy":0.0017,"dx":0.0017,"nx":28,"ny":28,"refTime":"2023-10-19T21:00:00:Z","depth":"2","parameterNumber":3,"parameterNumberName":"V-component_of_CURRENTS"},"data":[0,0,0,0,0,0,0,0,0,0,0,0,0,0,0,0,0,0,0,0,0,0,0,0,0,0,0,0,0,0,0,0,0,0,0,0,0,0,0,0,0,0,0,0,0,0,0,0,0,0,0,0,0,0,0,0,0,0,0.0209,0.0209,0,0.0205,0.0205,0.0205,0.0172,0.0171,0.017,0.017,0.0157,0.0157,0.0158,0,0,0,0,0,0,0,0,0,0,0,0,0,0.0156,0.0157,0.0209,0.0209,0.0209,0.0205,0.0205,0.0205,0.0172,0.0171,0.017,0.0169,0.0156,0.0157,0.0158,0,0,0,0,0,0,0,0,0,0,0,0,0,0.0169,0.0158,0.0209,0.0191,0.019,0.0205,0.0205,0.0205,0.0173,0.0171,0.017,0.0169,0.0156,0.0157,0.0158,0.0189,0,0,0.016,0.016,0,0,0,0,0,0,0,0,0.0168,0.0171,0.0194,0.0193,0.0191,0.0187,0.0182,0.0199,0.0173,0.018,0.017,0.0168,0.0167,0.0166,0.017,0.0188,0.0187,0.016,0.016,0.0161,0.0161,0,0,0,0,0,0,0,0.0167,0.0171,0.0208,0.0194,0.0192,0.0173,0.0174,0.0185,0.0181,0.0179,0.0176,0.0176,0.0166,0.0169,0.0169,0.0187,0.016,0.0161,0.0161,0.0161,0.0178,0.0178,0,0,0,0,0,0,0.017,0.017,0.0208,0.0208,0.0175,0.0175,0.0176,0.019,0.0181,0.0178,0.0177,0.0174,0.0169,0.0168,0.0168,0.0119,0.0161,0.0161,0.0162,0.0178,0.0178,0.0178,0,0,0,0,0,0,0.0169,0.0174,0.0208,0.0187,0.019,0.0177,0.0194,0.0191,0.018,0.0179,0.0176,0.0167,0.0167,0.0167,0.0164,0.0121,0.0162,0.0162,0.0178,0.0178,0.0178,0.0074,0,0,0,0,0,0,0.0168,0.0174,0.0184,0.0188,0.0191,0.0204,0.0195,0.0192,0.0182,0.0178,0.0171,0.0168,0.0166,0.0163,0.0165,0.0123,0.0163,0.0178,0.0178,0.0178,0.0078,0.0071,0.0065,0,0,0,0,0,0.0167,0.0181,0.0185,0.0189,0.0206,0.0204,0.0204,0.019,0.0183,0.0176,0.0171,0.0168,0.0164,0.0164,0.0166,0.0123,0.0178,0.0178,0.0178,0.0081,0.0072,0.0065,0,0,0,0,0,0,0.0127,0.0179,0.0183,0.0203,0.0199,0.0198,0.019,0.0188,0.0181,0.0171,0.0172,0.0171,0.015,0.0168,0.0168,0.0134,0.0169,0.017,0.0095,0.0087,0.0081,0.0067,0.0163,0,0,0,0,0,0.0135,0.018,0.0191,0.02,0.02,0.0196,0.0194,0.0183,0.0179,0.0173,0.0168,0.0166,0.0157,0.0146,0.0152,0.0138,0.0152,0.0115,0.0108,0.0102,0.0096,0.0095,0.0087,0.0178,0.0178,0.0178,0,0,0.0116,0.0153,0.0171,0.0199,0.0194,0.0186,0.019,0.0178,0.0161,0.0175,0.015,0.0147,0.0154,0.0126,0.0118,0.0129,0.0083,0.0102,0.0096,0.0094,0.0094,0.0085,0.0076,0.0178,0.0178,0.0178,0,0,0.0096,0.0135,0.0158,0.0163,0.0168,0.017,0.0166,0.016,0.0146,0.0127,0.0128,0.0107,0.0098,0.0086,0.008,0.0053,0.0055,0.0047,-0.0013,-0.0015,-0.0023,-0.003,-0.0039,-0.0046,0.0035,0.0035,0.0034,0,0.006,0.0111,0.0151,0.0158,0.0166,0.0162,0.0157,0.0139,0.0128,0.0129,0.0105,0.009,0.0076,0.0054,0.0011,0.0032,0.0029,0.0005,-0.0027,-0.0034,-0.0039,-0.0046,-0.0052,0.003,0.003,0.0031,0.0031,0,0.0063,0.0088,0.0092,0.0123,0.0126,0.0125,0.0114,0.0107,0.0089,0.0077,0.0051,0.0025,0.0019,-0.0007,-0.0029,-0.0074,-0.0065,-0.0033,-0.0018,-0.0056,-0.0059,-0.0064,0.0022,0.0024,0.0026,0.0027,0,0,0.0029,0.0087,0.0084,0.0103,0.012,0.0121,0.0102,0.0103,0.0099,0.0051,0.0044,-0.003,-0.0044,-0.0051,-0.0072,-0.0115,-0.0192,-0.0123,-0.0121,-0.0151,-0.0215,-0.0252,-0.026,-0.018,-0.0181,-0.0182,-0.0209,0,0.0016,0.0036,0.0073,0.0077,0.0094,0.0108,0.0096,0.0089,0.0077,0.0065,0.0021,-0.0003,-0.0059,-0.0084,-0.0137,-0.0155,-0.0208,-0.0188,-0.0156,-0.0155,-0.02,-0.0267,-0.0238,-0.0263,-0.0213,-0.0214,-0.0214,0,0.0028,0.0049,0.0045,0.0099,0.0102,0.0077,0.0101,0.009,0.0077,0.0072,0.004,0.002,-0.0051,-0.0093,-0.0171,-0.0161,-0.0216,-0.0244,-0.0244,-0.0245,-0.0201,-0.0211,-0.0274,-0.0222,-0.0222,-0.0221,-0.0221,0,0.0032,0.0053,0.0056,0.0064,0.0086,0.0071,0.0068,0.0069,0.009,0.0062,0.0082,0.0019,-0.0006,-0.0083,-0.0164,-0.0177,-0.0238,-0.0231,-0.0309,-0.0311,-0.0261,-0.0257,-0.03,-0.03,-0.03,-0.03,-0.03,0,0.0068,0.0071,0.0035,0.0037,0.0026,0.0041,0.0026,0.0041,0.0063,0.0114,0.006,0.0097,-0.0014,-0.0049,-0.0144,-0.0243,-0.021,-0.0343,-0.0331,-0.0297,-0.0296,-0.0227,-0.0218,-0.0301,-0.0301,-0.03,-0.03,0,0.0094,0.0078,0.0062,0.0035,0.0026,-0.0006,0.0007,0.0024,0.0044,0.0115,0.0114,0.0141,0.0089,-0.0009,-0.0107,-0.0199,-0.0289,-0.033,-0.0296,-0.0283,-0.0372,-0.0368,-0.0435,-0.0437,-0.0439,-0.044,-0.0441,0,0.0131,0.011,0.0032,0.0002,-0.0027,-0.0064,-0.0056,-0.0013,0.0053,0.017,0.0238,0.0207,0.0228,0.0059,-0.0117,-0.0284,-0.0299,-0.0378,-0.0414,-0.041,-0.0391,-0.0384,-0.0378,-0.0383,-0.0383,-0.0384,-0.0384,0,0.0163,0.0079,0.0033,-0.0032,-0.0068,-0.0027,0.0002,0.0077,0.0184,0.0275,0.0436,0.0455,0.0285,0.0123,-0.0145,-0.0246,-0.0358,-0.0396,-0.0375,-0.0364,-0.0366,-0.0345,-0.034,-0.0387,-0.0387,-0.0387,-0.0387,-0.0387,0.0128,0.0067,-0.0031,-0.0086,-0.0083,0.0037,0.0115,0.0218,0.0371,0.0573,0.0589,0.0602,0.0353,0.0001,-0.0172,-0.0375,-0.0395,-0.0469,-0.0465,-0.0461,-0.0462,-0.0468,-0.0508,-0.0508,-0.0509,-0.0509,-0.0509,0,0.0093,0.0017,-0.004,-0.0084,-0.0037,-0.0003,0.0198,0.0325,0.0544,0.0646,0.0767,0.0543,0.0329,0.0058,-0.0254,-0.0447,-0.0426,-0.0489,-0.0427,-0.0424,-0.0421,-0.0417,-0.0452,-0.0452,-0.0452,-0.0452,0,0,0.0058,-0.0031,-0.0066,-0.0036,-0.001,0.0169,0.0325,0.053,0.066,0.0786,0.0763,0.0692,0.0333,0.0107,-0.0137,-0.0286,-0.0293,-0.03,-0.033,-0.0223,-0.0217,-0.0404,-0.0394,0,0,0,0,0]}],[{"header":{"parameterUnit":"m.s-1","parameterCategory":2,"la1":30.2991,"la2":30.254,"lo1":-89.0895,"lo2":-89.0444,"dy":0.0017,"dx":0.0017,"nx":28,"ny":28,"refTime":"2023-10-19T21:00:00:Z","depth":"4","parameterNumber":2,"parameterNumberName":"U-component_of_CURRENTS"},"data":[0,0,0,0,0,0,0,0,0,0,0,0,0,0,0,0,0,0,0,0,0,0,0,0,0,0,0,0,0,0,0,0,0,0,0,0,0,0,0,0,0,0,0,0,0,0,0,0,0,0,0,0,0,0,0,0,0,0,-0.0005,-0.0004,0,0.0029,0.003,0.003,0.005,0.005,0.005,0.005,0.0099,0.01,0.0102,0,0,0,0,0,0,0,0,0,0,0,0,0,-0.0048,-0.0047,-0.0005,-0.0004,-0.0004,0.0029,0.003,0.003,0.005,0.005,0.005,0.005,0.0099,0.01,0.0102,0,0,0,0,0,0,0,0,0,0,0,0,0,-0.0023,-0.0047,-0.0005,0.001,0.0011,0.0029,0.003,0.003,0.005,0.005,0.005,0.005,0.0098,0.01,0.0102,0.0111,0,0,0.0108,0.0108,0,0,0,0,0,0,0,0,-0.0024,-0.0021,0.0007,0.0009,0.0011,0.0035,0.0032,0.0058,0.005,0.0036,0.005,0.005,0.0079,0.0083,0.0089,0.0113,0.0115,0.0108,0.0109,0.011,0.011,0,0,0,0,0,0,0,-0.0026,-0.0023,0.0009,0.0008,0.001,0.0016,0.002,0.0037,0.0057,0.0037,0.0038,0.0042,0.008,0.0087,0.009,0.0116,0.0108,0.0109,0.011,0.0111,0.0159,0.016,0,0,0,0,0,0,-0.0031,-0.0024,0.0008,0.001,-0.0007,0.0017,0.0021,0.0027,0.0056,0.0061,0.0042,0.0043,0.0084,0.0088,0.0092,0.0139,0.011,0.0111,0.0112,0.0159,0.0159,0.016,0,0,0,0,0,0,-0.0032,-0.0028,0.0006,-0.0007,-0.0002,0.0018,0.0025,0.0028,0.0042,0.006,0.0064,0.0053,0.0084,0.0089,0.0112,0.014,0.0112,0.0114,0.0159,0.0159,0.0159,0.0211,0,0,0,0,0,0,-0.0033,-0.0029,-0.0025,-0.0007,-0.0001,0.0025,0.0025,0.0029,0.0043,0.0045,0.0071,0.0075,0.0084,0.0109,0.0114,0.0142,0.0115,0.0159,0.0159,0.0159,0.0209,0.0213,0.0217,0,0,0,0,0,-0.0035,-0.0026,-0.0025,-0.0021,0.0003,0.0025,0.0029,0.0043,0.0044,0.0055,0.0067,0.0074,0.0114,0.0111,0.0116,0.0146,0.0159,0.0159,0.0159,0.0208,0.0213,0.0217,0,0,0,0,0,0,-0.0046,-0.0023,-0.0021,-0.0007,0.001,0.0029,0.004,0.0047,0.0065,0.0069,0.008,0.0086,0.0115,0.0115,0.0111,0.0156,0.0136,0.0138,0.0171,0.0176,0.0179,0.0204,0.0117,0,0,0,0,0,-0.0047,-0.0032,-0.0014,-0.0003,0.0007,0.0023,0.0033,0.0045,0.0062,0.0071,0.0088,0.0102,0.0119,0.0135,0.0147,0.0176,0.0186,0.0194,0.0198,0.0201,0.0223,0.0247,0.0256,0.0161,0.0161,0.0161,0,0,-0.005,-0.0034,-0.0028,-0.0004,0.0011,0.0037,0.003,0.0053,0.008,0.0074,0.0113,0.0116,0.0126,0.0159,0.0172,0.0166,0.0233,0.0202,0.0205,0.0225,0.0249,0.0259,0.0267,0.0161,0.0161,0.0161,0,0,-0.0041,-0.0032,-0.0014,0.0005,0.0032,0.0047,0.0055,0.0081,0.0098,0.013,0.013,0.0151,0.0178,0.0196,0.0207,0.0235,0.0246,0.0234,0.0285,0.0308,0.0317,0.0325,0.0351,0.0361,0.0241,0.0242,0.0242,0,-0.0047,-0.002,-0.0007,0.002,0.0039,0.0055,0.0081,0.0105,0.0136,0.0155,0.015,0.0199,0.0202,0.0251,0.026,0.0249,0.0263,0.0271,0.0316,0.0324,0.0331,0.0356,0.0366,0.0244,0.0244,0.0244,0.0243,0,-0.002,0.0003,0.0017,0.0058,0.008,0.0106,0.0139,0.0165,0.0184,0.0209,0.0257,0.0268,0.0301,0.0299,0.0294,0.0347,0.034,0.0315,0.0312,0.0345,0.0367,0.0377,0.0248,0.0247,0.0246,0.0245,0,0,-0.0039,0.0022,0.0027,0.0054,0.0102,0.0125,0.0172,0.0218,0.0264,0.0292,0.0347,0.0374,0.0386,0.0398,0.0395,0.0418,0.0473,0.0396,0.0396,0.0435,0.0535,0.0473,0.0478,0.0458,0.046,0.0461,0.0531,0,-0.0025,0.003,0.0058,0.0112,0.0143,0.0175,0.0221,0.0267,0.0314,0.0372,0.0394,0.0444,0.0423,0.0447,0.047,0.0464,0.0501,0.0457,0.0487,0.0489,0.044,0.0488,0.0467,0.0539,0.0541,0.0542,0.0544,0,-0.001,0.0028,0.0083,0.0149,0.0165,0.0207,0.0286,0.0337,0.0417,0.045,0.0509,0.0527,0.0572,0.0544,0.0589,0.0562,0.0567,0.0563,0.0564,0.05,0.0445,0.0497,0.0561,0.056,0.0559,0.0557,0.0556,0,-0.0024,0.0042,0.0088,0.0112,0.0191,0.0228,0.028,0.0366,0.0423,0.0517,0.0563,0.0614,0.0652,0.066,0.0649,0.0627,0.0692,0.0651,0.0612,0.0607,0.0619,0.061,0.0707,0.0707,0.0707,0.0706,0.0706,0,-0.0018,0.0014,0.0092,0.0122,0.0186,0.0246,0.0341,0.0392,0.0494,0.0571,0.0617,0.0664,0.0685,0.0713,0.069,0.0682,0.0727,0.0644,0.0628,0.0637,0.0629,0.0626,0.0616,0.0709,0.0708,0.0708,0.0707,0,-0.0046,0.0007,0.0059,0.0147,0.0186,0.0236,0.0368,0.0441,0.0534,0.0637,0.0664,0.0722,0.0733,0.0749,0.0762,0.0738,0.0725,0.0717,0.0746,0.0727,0.0619,0.061,0.0683,0.0681,0.068,0.0679,0.0678,0,-0.0059,-0.0028,0.0066,0.0116,0.0163,0.0262,0.0339,0.0448,0.0519,0.0652,0.0679,0.0737,0.076,0.0738,0.0738,0.0721,0.0703,0.0729,0.0663,0.0643,0.062,0.0613,0.0607,0.0676,0.0676,0.0675,0.0675,0,-0.0092,-0.0057,-0.0021,0.0093,0.0178,0.0274,0.0383,0.0417,0.0547,0.0641,0.0679,0.0696,0.0718,0.0689,0.0702,0.0676,0.0722,0.0715,0.0717,0.0656,0.0635,0.0613,0.0608,0.0671,0.0671,0.0672,0.0672,0,-0.0135,-0.0126,-0.0053,0.0047,0.0165,0.0259,0.0314,0.0397,0.0471,0.0602,0.0604,0.065,0.0704,0.0667,0.0657,0.0646,0.062,0.0614,0.062,0.0625,0.0568,0.0532,0.0544,0,0,0,0,0,-0.0174,-0.0155,-0.0082,0.0024,0.0153,0.0233,0.0341,0.0391,0.0498,0.0513,0.0562,0.0568,0.0577,0.0576,0.0544,0.0605,0.0608,0.0567,0.06,0.0647,0.0652,0.0588,0,0,0,0,0,0,-0.0201,-0.0166,-0.012,0.0014,0.0098,0.0229,0.0292,0.0354,0.0354,0.0453,0.043,0.0546,0.0518,0.058,0.0534,0.0541,0.0554,0.0604,0.0603,0.0644,0.0649,0.0653,0.0588,0,0,0,0,0]},{"header":{"parameterUnit":"m.s-1","parameterCategory":2,"la1":30.2991,"la2":30.254,"lo1":-89.0895,"lo2":-89.0444,"dy":0.0017,"dx":0.0017,"nx":28,"ny":28,"refTime":"2023-10-19T21:00:00:Z","depth":"4","parameterNumber":3,"parameterNumberName":"V-component_of_CURRENTS"},"data":[0,0,0,0,0,0,0,0,0,0,0,0,0,0,0,0,0,0,0,0,0,0,0,0,0,0,0,0,0,0,0,0,0,0,0,0,0,0,0,0,0,0,0,0,0,0,0,0,0,0,0,0,0,0,0,0,0,0,0.0405,0.0405,0,0.0394,0.0394,0.0394,0.0401,0.0402,0.0402,0.0403,0.0385,0.0384,0.0383,0,0,0,0,0,0,0,0,0,0,0,0,0,0.0389,0.0389,0.0405,0.0405,0.0405,0.0394,0.0394,0.0394,0.0401,0.0402,0.0402,0.0403,0.0385,0.0384,0.0383,0,0,0,0,0,0,0,0,0,0,0,0,0,0.0388,0.0389,0.0405,0.0408,0.0409,0.0394,0.0394,0.0394,0.0401,0.0402,0.0402,0.0403,0.0386,0.0384,0.0383,0.0362,0,0,0.0379,0.0378,0,0,0,0,0,0,0,0,0.0388,0.0388,0.0408,0.0408,0.0408,0.0401,0.0382,0.0383,0.0401,0.0403,0.0403,0.0403,0.039,0.0388,0.0383,0.0361,0.036,0.0379,0.0378,0.0378,0.0377,0,0,0,0,0,0,0,0.0388,0.0388,0.04,0.0408,0.0408,0.0395,0.0396,0.0382,0.0392,0.0403,0.0403,0.0404,0.039,0.0384,0.0383,0.036,0.0379,0.0378,0.0377,0.0376,0.0337,0.0337,0,0,0,0,0,0,0.0393,0.0389,0.04,0.04,0.0401,0.0395,0.0396,0.0402,0.0392,0.0392,0.0403,0.0404,0.0386,0.0384,0.0382,0.0404,0.0378,0.0376,0.0376,0.0337,0.0337,0.0337,0,0,0,0,0,0,0.0393,0.0394,0.0401,0.0394,0.0394,0.0395,0.0401,0.0401,0.0404,0.0393,0.0392,0.0407,0.0387,0.0384,0.0373,0.0402,0.0376,0.0375,0.0338,0.0337,0.0337,0.0418,0,0,0,0,0,0,0.0392,0.0394,0.0401,0.0395,0.0395,0.0403,0.0401,0.04,0.0403,0.0404,0.0395,0.0394,0.0387,0.0375,0.0372,0.04,0.0373,0.0338,0.0337,0.0337,0.0416,0.042,0.0424,0,0,0,0,0,0.0392,0.0402,0.0401,0.0402,0.0404,0.0403,0.0402,0.0404,0.0403,0.0407,0.0396,0.0395,0.037,0.0374,0.037,0.0398,0.0338,0.0338,0.0337,0.0414,0.0419,0.0424,0,0,0,0,0,0,0.0398,0.0403,0.0402,0.0414,0.0412,0.0405,0.0414,0.0406,0.04,0.0404,0.0389,0.0386,0.0388,0.0369,0.0374,0.0381,0.0355,0.0353,0.0414,0.0419,0.0424,0.0429,0.0372,0,0,0,0,0,0.0401,0.0415,0.041,0.0421,0.0424,0.0417,0.0417,0.0416,0.0409,0.0408,0.0399,0.0387,0.038,0.0381,0.0366,0.0369,0.0324,0.0381,0.0386,0.039,0.0389,0.0337,0.0337,0.0335,0.0335,0.0335,0,0,0.0407,0.0413,0.042,0.0424,0.0427,0.0442,0.042,0.0427,0.044,0.0405,0.042,0.0399,0.0379,0.0387,0.0387,0.038,0.0366,0.0389,0.0394,0.039,0.0336,0.0337,0.0337,0.0334,0.0334,0.0335,0,0,0.0438,0.0432,0.046,0.0461,0.0468,0.0461,0.0465,0.0459,0.0459,0.046,0.0442,0.0434,0.0422,0.0419,0.0415,0.0428,0.0385,0.0424,0.0463,0.0414,0.0414,0.0414,0.0356,0.035,0.0434,0.0434,0.0435,0,0.0442,0.0471,0.0465,0.0493,0.0488,0.0475,0.0489,0.0497,0.0486,0.0472,0.0477,0.0446,0.0442,0.0443,0.046,0.0444,0.0396,0.0454,0.0422,0.042,0.0418,0.036,0.0352,0.0438,0.0438,0.0437,0.0437,0,0.0502,0.0514,0.0529,0.0557,0.0554,0.056,0.056,0.0555,0.0546,0.0541,0.0528,0.0517,0.0491,0.0503,0.0496,0.0484,0.0447,0.0431,0.0415,0.0424,0.0361,0.0351,0.0444,0.0442,0.0441,0.044,0,0,0.0525,0.0559,0.0565,0.0562,0.0575,0.0568,0.059,0.0578,0.0578,0.0579,0.0562,0.0579,0.0553,0.0545,0.0531,0.0514,0.0478,0.0477,0.0472,0.0432,0.0351,0.0339,0.0327,0.0451,0.045,0.0449,0.0312,0,0.0562,0.06,0.0614,0.0628,0.0627,0.0609,0.0626,0.0616,0.0608,0.0593,0.0579,0.0567,0.0578,0.0562,0.0549,0.0477,0.0455,0.0515,0.0337,0.0331,0.0331,0.0317,0.0445,0.0305,0.0302,0.0301,0.03,0,0.0614,0.0617,0.0639,0.0619,0.062,0.0642,0.0612,0.0631,0.062,0.0605,0.0591,0.0563,0.0535,0.0544,0.0446,0.0476,0.0424,0.0384,0.0377,0.0331,0.0302,0.0291,0.0281,0.0283,0.0284,0.0285,0.0286,0,0.0595,0.0624,0.0624,0.0624,0.0625,0.0625,0.0635,0.0635,0.0635,0.0612,0.0584,0.0547,0.0503,0.0443,0.0366,0.0389,0.0246,0.0257,0.0201,0.0198,0.0215,0.0217,0.0193,0.0194,0.0194,0.0194,0.0195,0,0.0597,0.0592,0.0623,0.0614,0.0622,0.0627,0.0645,0.0641,0.0639,0.0626,0.0597,0.055,0.0473,0.0383,0.0334,0.0225,0.0208,0.0197,0.0162,0.0251,0.0258,0.0208,0.0211,0.0189,0.019,0.0191,0.0192,0,0.0555,0.0586,0.0582,0.0596,0.0616,0.0622,0.0663,0.0663,0.0663,0.0635,0.0614,0.0519,0.0398,0.0323,0.0196,0.0166,0.0076,0.0048,0.0131,0.0103,0.0069,0.0078,-0.0038,-0.004,-0.0041,-0.0042,-0.0043,0,0.0522,0.0521,0.0568,0.0596,0.0611,0.0643,0.0665,0.068,0.0668,0.061,0.0565,0.045,0.0384,0.0174,0.0118,0.0,0.001,-0.0046,0.0047,0.0068,0.0045,0.0056,0.0067,-0.0045,-0.0045,-0.0046,-0.0046,0,0.0431,0.0472,0.048,0.0553,0.0592,0.0618,0.0643,0.0625,0.0615,0.0621,0.0492,0.0399,0.0261,0.0142,0.0047,-0.0021,-0.0016,-0.0059,-0.0056,0.0031,0.0058,0.0039,0.0051,-0.0051,-0.005,-0.005,-0.0049,0,0.0367,0.0374,0.0424,0.0481,0.0545,0.0553,0.0581,0.0547,0.0534,0.0479,0.0432,0.0316,0.026,0.0128,0.004,-0.0032,-0.0024,-0.0028,-0.0026,-0.0022,0.0048,0.0089,-0.0051,0,0,0,0,0,0.0285,0.0297,0.0347,0.0406,0.0476,0.0509,0.0535,0.0552,0.0547,0.0452,0.0445,0.0326,0.0185,0.0113,0.0035,0.0035,-0.003,-0.0056,-0.0032,-0.0076,-0.0071,0.0011,0,0,0,0,0,0,0.0231,0.0262,0.0306,0.0329,0.0371,0.0414,0.043,0.0436,0.0382,0.0383,0.0297,0.031,0.0164,0.0221,0.0029,0.0011,0.0017,-0.0102,-0.0104,-0.0079,-0.0074,-0.007,0.0016,0,0,0,0,0]}]]